Location: Clair
(33.8067°N, 117.9845°W)
Time: 07:38:50
(UTC+00:00)

Cosmos 2227 Rocket - Pass Details

Date: 14 February 2026
Orbit: 836 x 845 km, 71.0° (Epoch: 12 March)

Event Time Altitude Azimuth Distance (km) Brightness Sun altitude
Exits shadow 14:02:20 - 313° (NW) 2,976 4.5 -7.9°
Reaches altitude 10° 14:04:11 10° 301° (WNW) 2,467 4.0 -7.5°
Maximum altitude 14:07:48 18° 261° (W) 1,977 3.6 -6.8°
Drops below altitude 10° 14:11:25 10° 220° (SW) 2,458 4.3 -6.0°
Sets 14:14:39 0° 202° (SSW) 3,387 5.2 -5.4°
